Torna al catalogo

STARLINK-5355

AttivoComunicazioniVLEO
NORAD 57139·PAYLOAD·🇺🇸 United States

Lanciato Jun 23, 2023 da Cape Canaveral Space Force Station

Loading…

Prossimi Passaggi (prossime 24 ore)

TLE

AggiornatoSource: CelesTrak SupGP

Epoca: Sep 15, 2026, 02:39 UTC

1 57139C 23090AQ  26258.11090278 -.00010638  00000+0 -38525-3 0  2583
2 57139  43.0021 273.2855 0001146 285.4571 177.4079 15.27588146    16

Traccia STARLINK-5355 in tempo reale con AllMySat

Download on the App Store